Location: Unspecified
(0.0000°N, 0.0000°E)
Time: 21:00:51
(UTC+00:00)

Vanguard 2 - All Passes

Search period start: 19 April 2018 00:00
Search period end: 29 April 2018 00:00
Orbit: 553 x 2939 km, 32.9° (Epoch: 18 April)

Date Brightness Start Highest point End Pass type
(mag) Time Alt. Az. Time Alt. Az. Time Alt. Az.
19 Apr - 06:06:50 10° NNW 06:11:10 27° NE 06:17:23 10° E daylight
19 Apr - 08:13:31 10° WNW 08:19:57 58° SSW 08:30:55 10° SE daylight
19 Apr - 10:24:40 10° WSW 10:32:12 23° SSW 10:42:33 10° SSE daylight
19 Apr - 12:40:52 10° SSW 12:48:19 15° S 12:56:43 10° SSE daylight
19 Apr - 14:54:58 10° SSW 15:06:36 20° SSE 15:17:51 10° ESE daylight
19 Apr - 17:06:32 10° SW 17:22:39 41° SSE 17:34:44 10° E daylight
19 Apr - 19:19:23 10° SW 19:35:23 85° NW 19:45:09 10° NE visible
19 Apr - 21:36:22 10° W 21:45:11 24° NW 21:51:21 10° NNE visible
20 Apr - 06:24:11 10° NW 06:29:01 46° NE 06:36:34 10° ESE daylight
20 Apr - 08:32:02 10° W 08:38:28 40° SSW 08:48:51 10° SE daylight
20 Apr - 10:44:42 10° SW 10:51:31 18° SSW 11:00:18 10° SSE daylight
20 Apr - 13:00:51 10° SSW 13:08:24 15° S 13:16:43 10° SSE daylight
20 Apr - 15:13:06 10° SSW 15:26:17 25° SSE 15:38:35 10° ESE daylight
20 Apr - 17:24:30 10° SW 17:41:29 52° SSE 17:53:43 10° ENE daylight
20 Apr - 19:38:05 10° WSW 19:53:32 65° NW 20:03:02 10° NE visible
20 Apr - 21:57:16 10° WNW 22:03:17 16° NW 22:07:59 10° N visible
21 Apr - 06:41:53 10° NW 06:46:57 77° NE 06:55:13 10° ESE daylight
21 Apr - 08:50:58 10° W 08:57:12 29° SSW 09:06:35 10° SSE daylight
21 Apr - 11:05:11 10° SW 11:11:05 15° S 11:18:11 10° SSE daylight
21 Apr - 13:20:02 10° SSW 13:28:29 16° S 13:37:39 10° SE daylight
21 Apr - 15:31:02 10° SSW 15:45:41 30° SSE 15:58:51 10° E daylight
21 Apr - 17:42:33 10° SW 18:00:06 67° SSE 18:12:20 10° ENE daylight
21 Apr - 19:57:10 10° WSW 20:11:34 48° NW 20:20:43 10° NNE visible
22 Apr - 04:54:17 10° N 04:56:57 15° NE 05:00:05 10° ENE visible
22 Apr - 06:59:57 10° WNW 07:05:05 66° SSW 07:13:30 10° SE daylight
22 Apr - 09:10:23 10° WSW 09:16:08 21° SSW 09:24:07 10° SSE daylight
22 Apr - 11:25:52 10° SSW 11:30:51 13° S 11:36:31 10° SSE daylight
22 Apr - 13:38:30 10° SSW 13:48:25 18° SSE 13:59:01 10° SE daylight
22 Apr - 15:48:53 10° SW 16:04:48 38° SSE 16:18:38 10° E daylight
22 Apr - 18:00:47 10° SW 18:18:33 84° SE 18:30:40 10° ENE visible
22 Apr - 20:16:44 10° W 20:29:36 35° NW 20:38:10 10° NNE visible
23 Apr - 05:11:08 10° NNW 05:14:51 28° NE 05:19:46 10° E visible
23 Apr - 07:18:21 10° W 07:23:26 41° SSW 07:31:27 10° SE daylight
23 Apr - 09:30:24 10° SW 09:35:15 15° SSW 09:41:25 10° SSE daylight
23 Apr - 11:46:08 10° SSW 11:50:45 12° S 11:55:54 10° SSE daylight
23 Apr - 13:56:34 10° SSW 14:08:07 22° SSE 14:20:17 10° ESE daylight
23 Apr - 16:06:44 10° SW 16:23:41 48° SSE 16:37:57 10° E daylight
23 Apr - 18:19:15 10° WSW 18:36:50 78° NW 18:48:44 10° NE visible
23 Apr - 20:36:55 10° W 20:47:43 26° NW 20:55:23 10° NNE visible
24 Apr - 05:28:35 10° NW 05:32:44 53° NE 05:38:38 10° ESE visible
24 Apr - 07:37:09 10° W 07:42:00 27° SSW 07:49:06 10° SSE daylight
24 Apr - 09:51:17 10° SSW 09:54:35 12° S 09:58:23 10° SSE daylight
24 Apr - 12:05:16 10° SSW 12:10:42 13° S 12:16:45 10° SSE daylight
24 Apr - 14:14:24 10° SSW 14:27:32 27° SSE 14:41:06 10° ESE daylight
24 Apr - 16:24:41 10° SW 16:42:23 60° SSE 16:56:51 10° ENE daylight
24 Apr - 18:38:05 10° WSW 18:55:01 61° NW 19:06:35 10° NE visible
24 Apr - 20:57:56 10° WNW 21:06:01 18° NW 21:12:16 10° N visible
25 Apr - 05:46:28 10° WNW 05:50:45 81° SSW 05:57:02 10° SE daylight
25 Apr - 07:56:32 10° WSW 08:00:45 18° SSW 08:06:23 10° SSE daylight
25 Apr - 12:23:30 10° SSW 12:30:33 15° SSE 12:38:32 10° SE daylight
25 Apr - 14:32:08 10° SSW 14:46:40 34° SSE 15:01:23 10° E daylight
25 Apr - 16:42:46 10° SW 17:00:54 75° SE 17:15:24 10° ENE daylight
25 Apr - 18:57:17 10° WSW 19:13:11 47° NW 19:24:16 10° NNE visible
25 Apr - 21:20:16 10° NW 21:24:35 12° NNW 21:28:19 10° NNW visible
26 Apr - 03:58:06 10° N 04:00:47 17° NE 04:03:43 10° E visible
26 Apr - 06:04:44 10° WNW 06:08:56 44° SSW 06:15:00 10° SE daylight
26 Apr - 08:16:50 10° SW 08:19:41 12° SSW 08:23:03 10° S daylight
26 Apr - 12:41:16 10° SSW 12:50:12 18° SSE 13:00:25 10° ESE daylight
26 Apr - 14:49:53 10° SW 15:05:33 42° SSE 15:21:07 10° E daylight
26 Apr - 17:01:02 10° SW 17:19:18 89° NW 17:33:40 10° NE daylight
26 Apr - 19:17:00 10° W 19:31:24 35° NW 19:41:45 10° NNE visible
27 Apr - 04:15:11 10° NNW 04:18:47 34° NE 04:22:57 10° ESE visible
27 Apr - 06:23:27 10° W 06:27:20 26° SSW 06:32:37 10° SSE daylight
27 Apr - 12:58:53 10° SSW 13:09:35 22° SSE 13:21:54 10° ESE daylight
27 Apr - 15:07:41 10° SW 15:24:14 53° SE 15:40:22 10° ENE daylight
27 Apr - 17:19:34 10° WSW 17:37:37 72° NW 17:51:43 10° NE daylight
27 Apr - 19:37:20 10° W 19:49:46 27° NW 19:59:04 10° NNE visible
28 Apr - 04:32:52 10° NW 04:36:47 72° NE 04:41:30 10° ESE visible
28 Apr - 06:42:50 10° WSW 06:45:54 16° SSW 06:49:41 10° SSE daylight
28 Apr - 11:11:48 10° S 11:13:18 10° SSE 11:14:52 10° SSE daylight
28 Apr - 13:16:27 10° SSW 13:28:41 28° SSE 13:42:47 10° E daylight
28 Apr - 15:25:36 10° SW 15:42:47 66° SE 15:59:12 10° ENE daylight
28 Apr - 17:38:27 10° WSW 17:55:55 57° NW 18:09:34 10° NE daylight
28 Apr - 19:58:24 10° WNW 20:08:22 20° NNW 20:16:11 10° N visible
